Location: Doverdale
(52.2833°N, 2.2000°W)
Time: 02:58:57
(UTC+00:00)

Cosmos 1980 Rocket - Pass Details

Date: 03 March 2021
Orbit: 828 x 851 km, 71.0° (Epoch: 15 April)

Event Time Altitude Azimuth Distance (km) Brightness Sun altitude
Rises 18:53:23 0° 233° (SW) 3,393 6.2 -10.2°
Reaches altitude 10° 18:55:57 10° 240° (WSW) 2,465 5.6 -10.5°
Maximum altitude 19:01:20 43° 312° (NW) 1,178 3.4 -11.4°
Drops below altitude 10° 19:06:46 10° 23° (NNE) 2,488 4.5 -12.2°
Sets 19:09:22 0° 31° (NNE) 3,429 5.1 -12.6°
